Weather History for KAQV - November, 2012

Change the Weather History Date:

Saturday, November 10, 2012

  Actual Average (KPOE) Record (KPOE)
Temperature  
Mean Temperature 66 °F -  
Max Temperature 80 °F 67 °F 84 °F (2002)
Min Temperature 53 °F 48 °F 37 °F (2000)
Cooling Degree Days 2    
Growing Degree Days 16 (Base 50)    
Moisture  
Dew Point 56 °F    
Average Humidity 70    
Maximum Humidity 96    
Minimum Humidity 43    
Precipitation  
Precipitation 0.01 in - - ()
Sea Level Pressure  
Sea Level Pressure 30.08 in    
Wind  
Wind Speed 5 mph (SSE)    
Max Wind Speed 10 mph    
Max Gust Speed 20 mph    
Visibility 10 miles    
Events      
Averages and records for this station are not official NWS values.
T = Trace of Precipitation, MM = Missing Value Source: NWS Daily Summary

Daily Weather History Graph

Daily Weather History Graph

Search for Another Location

Airport or City:

Trip Planner

Search our weather history database for the weather conditions in past years. The results will help you decide how hot, cold, wet, or windy it might be!

Date:

Astronomy

Nov. 10, 2012 Rise Set
Actual Time 6:36 AM CST 5:16 PM CST
Civil Twilight 6:11 AM CST 5:42 PM CST
Nautical Twilight 5:42 AM CST 6:11 PM CST
Astronomical Twilight 5:13 AM CST 6:40 PM CST
Moon 2:55 AM CST (11/10) 2:53 PM CST (11/10)
Length of Visible Light 11h 31m
Length of Day
10h 40m
Waning Crescent, 14% of the Moon is Illuminated
Nov 10
Waning Crescent
Nov 13
New
Nov 20
First Quarter
Nov 28
Full
Dec 6
Last Quarter

Hourly Weather History & Observations

Time (CST) Temp. Heat Index Dew Point Humidity Pressure Visibility Wind Dir Wind Speed Gust Speed Precip Events Conditions
12:56 AM 59.0 °F - 54.0 °F 83% 30.12 in 10.0 mi Variable 3.5 mph - N/A   Clear
1:56 AM 57.0 °F - 54.0 °F 89% 30.12 in 10.0 mi SSE 3.5 mph - N/A   Clear
2:56 AM 57.0 °F - 54.0 °F 89% 30.12 in 10.0 mi SSE 3.5 mph - N/A   Clear
3:56 AM 55.0 °F - 53.1 °F 93% 30.11 in 10.0 mi Calm Calm - N/A   Clear
4:56 AM 54.0 °F - 52.0 °F 93% 30.10 in 10.0 mi Calm Calm - N/A   Clear
5:56 AM 53.1 °F - 52.0 °F 96% 30.11 in 9.0 mi Calm Calm - N/A   Clear
6:56 AM 53.1 °F - 51.1 °F 93% 30.13 in 6.0 mi Calm Calm - N/A   Clear
7:56 AM 57.9 °F - 54.0 °F 87% 30.15 in 10.0 mi Variable 3.5 mph - 0.01 in   Clear
8:56 AM 64.9 °F - 55.9 °F 73% 30.16 in 10.0 mi SSE 5.8 mph - N/A   Clear
9:56 AM 73.0 °F - 57.0 °F 57% 30.15 in 10.0 mi Variable 5.8 mph - N/A   Clear
10:56 AM 75.0 °F - 57.0 °F 53% 30.13 in 10.0 mi SSE 10.4 mph 17.3 mph N/A   Clear
11:56 AM 78.1 °F - 55.9 °F 46% 30.10 in 10.0 mi South 6.9 mph 19.6 mph N/A   Scattered Clouds
12:56 PM 79.0 °F - 57.0 °F 47% 30.07 in 10.0 mi South 9.2 mph - N/A   Scattered Clouds
1:56 PM 80.1 °F 80.2 °F 55.9 °F 43% 30.04 in 10.0 mi SSE 10.4 mph 17.3 mph N/A   Mostly Cloudy
2:56 PM 77.0 °F - 55.9 °F 48% 30.02 in 10.0 mi South 9.2 mph - N/A   Partly Cloudy
3:56 PM 77.0 °F - 57.0 °F 50% 30.02 in 10.0 mi SSE 8.1 mph 17.3 mph N/A   Partly Cloudy
4:56 PM 73.9 °F - 57.0 °F 55% 30.03 in 10.0 mi SSE 9.2 mph - N/A   Scattered Clouds
5:56 PM 71.1 °F - 55.9 °F 59% 30.04 in 10.0 mi SSE 5.8 mph - N/A   Clear
6:56 PM 69.1 °F - 55.9 °F 63% 30.06 in 10.0 mi SSE 6.9 mph - N/A   Clear
7:56 PM 69.1 °F - 57.0 °F 65% 30.06 in 10.0 mi Variable 6.9 mph 17.3 mph N/A   Clear
8:56 PM 68.0 °F - 57.0 °F 68% 30.04 in 10.0 mi SSE 10.4 mph 18.4 mph N/A   Clear
9:56 PM 66.9 °F - 57.0 °F 70% 30.04 in 10.0 mi SSE 5.8 mph - N/A   Clear
10:56 PM 66.9 °F - 59.0 °F 76% 30.04 in 10.0 mi SSE 9.2 mph 18.4 mph N/A   Partly Cloudy
11:56 PM 66.9 °F - 59.0 °F 76% 30.04 in 10.0 mi SSE 8.1 mph - N/A   Scattered Clouds